Home > Weather > Lünen > Past weeks

Flag for Germany Past Weather in Lünen, North Rhine-Westphalia, Germany — Yesterday and Last 2 Weeks

Now
59 °F

Passing clouds.


Feels Like: 56 °F
Forecast: 50 / 66 °F
Wind: 14 mph from Southwest

Location: Dortmund / Wickede

Current Time: Jun 27, 2016 at 9:45:56 AM

Latest Report: Jun 27, 2016 at 8:50 AM


Visibility: N/A

Pressure: 30.09 "Hg

Humidity: 68%

Dew Point: 48 °F

Location of LünenLocation

Past Weather in Lünen — Graph

°F

Lünen Temperature Yesterday

Maximum temperature yesterday: 66 °F (at 2:50 PM)
Minimum temperature yesterday: 52 °F (at 5:20 AM)
Average temperature yesterday: 59 °F

High & Low Weather Summary for the Past Weeks

 TemperatureHumidityPressure
High90 °F (Jun 23, 3:20 PM)94% (Jun 13, 9:20 AM)30.24 "Hg (Jun 13, 9:20 AM)
Low48 °F (Jun 20, 5:20 AM)38% (Jun 23, 3:20 PM)29.47 "Hg (Jun 14, 2:50 PM)
Average62 °F73%29.89 "Hg
* Reported Jun 12 8:20 AM — Jun 27 8:50 AM, Lünen, Weather by CustomWeather, © 2016

Note: Actual official high and low records may vary slightly from our data, if they occured in-between our weather recording intervals... More about our weather records

Advertising

Lünen Weather History for the Previous 24 Hours

Scroll right to see more
 ConditionsComfort  
Time TempWeatherWind HumidityBarometerVisibility
8:50 AM
Mon, Jun 27
59 °FPassing clouds.14 mph68%30.09 "HgN/A
8:20 AM59 °FPassing clouds.13 mph68%30.07 "HgN/A
7:50 AM57 °FSunny.13 mph72%30.07 "Hg10 mi
7:20 AM55 °FSunny.12 mph77%30.07 "Hg10 mi
6:50 AM54 °FSunny.10 mph82%30.07 "Hg10 mi
6:20 AM54 °FSunny.9 mph82%30.07 "Hg10 mi
5:50 AM52 °FClear.9 mph88%30.07 "Hg10 mi
5:20 AM52 °FClear.8 mph88%30.07 "Hg10 mi
9:50 PM
Sun, Jun 26
57 °FSunny.7 mph72%30.07 "Hg10 mi
9:20 PM57 °FSunny.7 mph72%30.04 "Hg10 mi
8:50 PM59 °FSunny.7 mph68%30.04 "Hg10 mi
8:20 PM61 °FSunny.8 mph63%30.04 "Hg10 mi
7:50 PM61 °FSunny.8 mph68%30.04 "Hg10 mi
7:20 PM61 °FPassing clouds.8 mph63%30.04 "HgN/A
6:50 PM61 °FPassing clouds.7 mph68%30.04 "HgN/A
6:20 PM59 °FPassing clouds.6 mph77%30.07 "HgN/A
5:50 PM55 °FScattered clouds.2 mph82%30.04 "HgN/A
5:20 PM57 °FSprinkles. Partly sunny.15 mph72%30.07 "HgN/A
4:50 PM61 °FScattered showers. Partly sunny.9 mph72%30.04 "HgN/A
4:20 PM57 °FScattered showers. Broken clouds.7 mph77%30.04 "HgN/A
3:50 PM64 °FScattered showers. Broken clouds.9 mph56%30.04 "HgN/A
3:20 PM66 °FScattered clouds.13 mph46%30.04 "HgN/A
2:50 PM66 °FScattered clouds.10 mph56%30.04 "HgN/A
2:20 PM64 °FScattered clouds.12 mph52%30.04 "HgN/A
1:50 PM64 °FScattered clouds.12 mph56%30.04 "HgN/A
1:20 PM61 °FScattered clouds.9 mph63%30.07 "HgN/A
12:50 PM63 °FScattered clouds.10 mph64%30.07 "HgN/A
12:20 PM63 °FPartly sunny.10 mph59%30.07 "HgN/A
11:50 AM61 °FPartly sunny.9 mph63%30.07 "HgN/A
11:20 AM61 °FPartly sunny.12 mph63%30.07 "HgN/A
10:50 AM59 °FPartly sunny.15 mph68%30.07 "HgN/A
10:20 AM59 °FScattered clouds.13 mph72%30.04 "HgN/A
9:50 AM57 °FPartly sunny.13 mph72%30.04 "HgN/A
9:20 AM57 °FScattered clouds.9 mph77%30.04 "HgN/A
Weather by CustomWeather, © 2016

See weather overviewHow to use our weather pages